Location: Borowce
(50.8255°N, 19.6209°E)
Time: 23:07:08
(UTC+00:00)

ASTEX 1 - Pass Details

Date: 19 May 2025
Orbit: 715 x 734 km, 92.7° (Epoch: 16 June)

Event Time Altitude Azimuth Distance (km) Brightness Sun altitude
Rises 23:16:57 0° 1° (N) 3,162 8.3 -18.7°
Reaches altitude 10° 23:19:19 10° 356° (N) 2,239 7.1 -18.6°
Maximum altitude 23:24:02 47° 283° (WNW) 968 4.0 -18.5°
Enters shadow 23:26:11 29° 228° (SW) 1,336 4.3 -18.4°
